{"data":{"norad_id":65519,"intl_designator":"2025-198AD","name":"STARLINK-35164","alt_names":[],"object_type":"PAYLOAD","status":"ACTIVE","operator":null,"country":"US","launch_date":"2025-09-05","launch_site_code":"AFETR","launch_vehicle":null,"mission":null,"orbit_class":"UNKNOWN","rcs_meters":null,"size_class":null,"mass_kg":null,"dimensions":null,"purposes":["comms"],"wikipedia_slug":null,"has_3d_model":false,"image_url":null,"decayed_at":null,"tle_current":{"epoch":"2026-09-20T21:12:51.245280Z","epoch_age_seconds":78823,"freshness":"FRESH","line1":"1 65519U 25198AD  26263.88392645  .00010094  00000+0  30953-3 0  9991","line2":"2 65519  53.1581  80.1892 0001559  78.4568 281.6609 15.34394326 58563","mean_motion":15.34394326,"eccentricity":0.0001559,"inclination_deg":53.1581,"raan_deg":80.1892,"arg_perigee_deg":78.4568,"mean_anomaly_deg":281.6609,"bstar":0.00030953,"rev_number":5856,"period_min":93.84810511871,"perigee_km":461.65361496021,"apogee_km":463.78659420542,"semimajor_km":6840.8571045828,"source":"CELESTRAK","updated_at":"2026-09-21T09:00:35.647081Z"}}}